Location: Lombard
(41.8800°N, 88.0080°W)
Time: 23:41:12
(UTC-06:00)

Transit 4A - Visible Passes

Search period start: 29 January 2023 00:00
Search period end: 08 February 2023 00:00
Orbit: 871 x 973 km, 66.8° (Epoch: 29 January)

Date Brightness Start Highest point End Pass type
(mag) Time Alt. Az. Time Alt. Az. Time Alt. Az.
29 Jan 9.3 04:39:21 23° S 04:39:21 23° S 04:41:43 10° S visible
29 Jan 8.3 17:51:31 10° S 17:56:53 39° ESE 18:02:15 10° NE visible
29 Jan 9.1 19:37:56 10° WSW 19:43:14 35° NW 19:45:57 24° N visible
30 Jan 9.9 04:49:32 13° SSW 04:49:32 13° SSW 04:50:11 10° SSW visible
30 Jan 7.8 18:00:16 10° SSW 18:05:59 59° ESE 18:11:41 10° NE visible
30 Jan 9.6 19:47:54 10° W 19:52:42 26° NW 19:55:38 18° N visible
31 Jan 7.7 18:09:18 10° SSW 18:15:08 87° ESE 18:20:59 10° NNE visible
31 Jan 10.0 19:58:11 10° W 20:02:15 19° NW 20:05:14 13° N visible
01 Feb 8.2 18:18:35 10° SW 18:24:22 64° WNW 18:30:10 10° NNE visible
01 Feb 10.3 20:08:51 10° WNW 20:11:53 14° NW 20:14:44 10° N visible
02 Feb 8.8 18:28:08 10° SW 18:33:41 44° NW 18:39:15 10° NNE visible
02 Feb 10.4 20:20:20 10° NW 20:21:38 11° NNW 20:22:56 10° NNW visible
03 Feb 9.3 18:37:56 10° WSW 18:43:05 32° NW 18:48:15 10° NNE visible
04 Feb 9.8 18:48:00 10° W 18:52:34 23° NW 18:57:09 10° N visible
05 Feb 10.1 18:58:24 10° W 19:02:09 17° NW 19:05:55 10° N visible
06 Feb 10.2 19:09:14 10° WNW 19:11:49 13° NNW 19:14:26 10° N visible
